This demonstration page uses our WeatherBlox Daily Observations layout. Learn more.

41.55636, -103.73856

Hourly Observations for January 7, 2019

Temp ( °F °C ) Dew Point ( °F °C ) Humidity (%) Winds ( mph kmh ) Pressure ( in mb ) Visibility ( mi km ) Precip ( " mm )
12:58 am 00:58 Clear 38 3.1 27 -2.9 65 65 NW 15 24 29.65 1004 10 16.0934 N/A
1:58 am 01:58 Clear 37 2.8 27 -3 66 66 W 21 33 29.66 1004 10 16.0934 N/A
2:58 am 02:58 Partly Cloudy 35 1.7 27 -2.9 72 72 WNW 13 20 29.69 1006 10 16.0934 N/A
3:58 am 03:58 Mostly Cloudy 37 2.6 24 -4.7 59 59 WNW 22 35 29.68 1005 10 16.0934 N/A
4:58 am 04:58 Partly Cloudy 37 2.6 19 -7.1 49 49 WNW 36 57 29.65 1004 10 16.0934 N/A
5:58 am 05:58 Clear 34 1.2 20 -6.9 55 55 W 30 48 29.67 1005 10 16.0934 N/A
6:58 am 06:58 Clear 33 0.5 19 -7.4 56 56 WNW 26 43 29.7 1006 10 16.0934 N/A
7:58 am 07:58 Clear 32 0.1 18 -8 55 55 WNW 32 52 29.7 1006 10 16.0934 N/A
8:58 am 08:58 Clear 33 0.3 14 -9.9 47 47 WNW 30 48 29.73 1007 10 16.0934 N/A
9:58 am 09:58 Clear 31 -0.5 13 -10.3 48 48 WNW 23 37 29.73 1007 10 16.0934 N/A
10:58 am 10:58 Clear 31 -0.3 13 -10.3 47 47 WNW 25 41 29.74 1007 10 16.0934 N/A
11:58 am 11:58 Clear 30 -1 14 -9.9 51 51 W 24 39 29.8 1009 10 16.0934 N/A
12:58 pm 12:58 Clear 30 -1.3 14 -9.9 52 52 W 18 30 29.83 1010 10 16.0934 N/A
1:58 pm 13:58 Mostly Cloudy 30 -1.1 14 -9.8 52 52 WNW 15 24 29.82 1010 10 16.0934 N/A
2:58 pm 14:58 Mostly Cloudy 31 -0.4 16 -9.1 52 52 W 12 19 29.81 1010 10 16.0934 N/A
3:58 pm 15:58 Partly Cloudy 35 1.5 16 -8.7 47 47 WSW 8 13 29.81 1009 10 16.0934 N/A
4:58 pm 16:58 Sunny 39 3.8 18 -7.7 43 43 W 20 31 29.78 1009 10 16.0934 N/A
5:58 pm 17:58 Mostly Sunny 45 7.2 17 -8.2 33 33 W 28 44 29.78 1008 10 16.0934 N/A
6:58 pm 18:58 Partly Cloudy 44 6.5 17 -8.4 34 34 W 44 70 29.75 1008 10 16.0934 N/A
7:58 pm 19:58 Sunny 45 7 17 -8.4 33 33 WNW 38 61 29.76 1008 10 16.0934 N/A
8:58 pm 20:58 Mostly Sunny 45 7.1 15 -9.2 31 31 WNW 44 70 29.76 1008 3 4.82802 N/A
9:58 pm 21:58 Mostly Cloudy 44 6.6 17 -8.3 34 34 WNW 38 61 29.81 1010 10 16.0934 N/A
10:58 pm 22:58 Mostly Cloudy 38 3.6 24 -4.2 57 57 W 36 57 29.88 1012 10 16.0934 N/A
11:58 pm 23:58 Mostly Cloudy 37 2.8 20 -6.7 50 50 WNW 39 63 29.94 1014 10 16.0934 N/A

Powered by AerisWeather